Flag for USA

Past Weather in Fairfax, Virginia, USA — Yesterday and Last 2 Weeks

Now
76 °F

Clear.


Feels Like: 77 °F
Forecast: 89 / 73 °F
Wind: 3 mph from South

Location: Washington-Dulles International Airport

Current Time: Jul 9, 2020 at 2:13:34 am

Latest Report: Jul 9, 2020 at 12:52 am


Visibility: 10 mi

Pressure: 29.93 "Hg

Humidity: 80%

Dew Point: 69 °F

Location of FairfaxLocation

Past Weather in Fairfax — Graph

°F

Fairfax Temperature Yesterday

Maximum temperature yesterday: 91 °F (at 3:52 pm)
Minimum temperature yesterday: 73 °F (at 5:52 am)
Average temperature yesterday: 81 °F

High & Low Weather Summary for the Past Weeks

 TemperatureHumidityPressure
High95 °F (Jul 6, 4:41 pm)94% (Jul 6, 12:52 am)30.09 "Hg (Jul 6, 12:52 am)
Low59 °F (Jun 26, 4:52 am)33% (Jul 3, 4:52 pm)29.68 "Hg (Jun 24, 1:52 am)
Average79 °F66%29.91 "Hg
* Reported Jun 24 12:52 am — Jul 9 12:52 am, Fairfax. Weather by CustomWeather, © 2020

Note: Actual official high and low records may vary slightly from our data, if they occured in-between our weather recording intervals... More about our weather records

Fairfax Weather History for the Previous 24 Hours

Scroll right to see more
 ConditionsComfort  
Time TempWeatherWind HumidityBarometerVisibility
12:52 am
Thu, Jul 9
76 °FClear.3 mph80%29.93 "Hg10 mi
11:52 pm
Wed, Jul 8
76 °FClear.5 mph72%29.94 "Hg10 mi
10:52 pm77 °FPassing clouds.3 mph64%29.95 "Hg10 mi
9:52 pm79 °FPassing clouds.5 mph60%29.95 "Hg10 mi
8:52 pm81 °FPassing clouds.6 mph56%29.93 "Hg10 mi
7:52 pm85 °FSunny.9 mph57%29.91 "Hg10 mi
6:52 pm88 °FPassing clouds.6 mph45%29.91 "Hg10 mi
5:52 pm89 °FPassing clouds.7 mph42%29.90 "Hg10 mi
4:52 pm89 °FScattered clouds.5 mph41%29.91 "Hg10 mi
3:52 pm91 °FSunny.3 mph37%29.93 "Hg10 mi
2:52 pm87 °FScattered clouds.5 mph48%29.94 "Hg10 mi
1:52 pm89 °FScattered clouds.3 mph46%29.96 "Hg10 mi
12:52 pm86 °FScattered clouds.No wind59%29.99 "Hg10 mi
11:52 am87 °FScattered clouds.7 mph57%30.00 "Hg10 mi
10:52 am84 °FScattered clouds.3 mph65%30.00 "Hg10 mi
9:52 am82 °FPassing clouds.No wind70%30.01 "Hg10 mi
8:52 am80 °FSunny.5 mph76%30.01 "Hg10 mi
7:52 am77 °FPassing clouds.3 mph82%30.01 "Hg10 mi
6:52 am75 °FPassing clouds.No wind88%29.99 "Hg10 mi
5:52 am73 °FPassing clouds.6 mph90%29.98 "Hg10 mi
4:52 am74 °FPassing clouds.No wind91%29.98 "Hg10 mi
3:52 am74 °FPassing clouds.3 mph91%29.97 "Hg10 mi
2:52 am76 °FPassing clouds.6 mph88%29.98 "Hg10 mi
Weather by CustomWeather, © 2020

See weather overview